Overview Statistics Trail Chart Weather Telemetry Raw packets
 

This is the latest recevied weather packets stored in our database for station/object HB9FHL-13. If no packets are shown the sender has not sent any weather packets the latest 10 day(s).

<< 72 73 74 75 76 77 78 >>
Time Temp. Humidity Pressure Rain* Wind** Luminosity Snow
1788225527 17.78° C - 1022.7 hPa 0 mm - - -
1788225289 17.78° C - 1024.1 hPa 0 mm - - -
1788225226 17.78° C - 1024.1 hPa 0 mm - - -
1788224934 17.22° C - 1023.4 hPa 0 mm - - -
1788224625 17.78° C - 1022.5 hPa 0 mm - - -
1788224325 17.22° C - 1025.1 hPa 0 mm - - -
1788224024 18.33° C - 1023.1 hPa 0 mm - - -
1788223723 17.78° C - 1025.4 hPa 0 mm - - -
1788223423 17.78° C - 1026.7 hPa 0 mm - - -
1788223123 17.78° C - 1022.8 hPa 0 mm - - -
1788222822 17.78° C - 1028.3 hPa 0 mm - - -
1788222521 18.33° C - 1023.5 hPa 0 mm - - -
1788222220 18.33° C - 1024.5 hPa 0 mm - - -
1788221920 18.89° C - 1022.5 hPa 0 mm - - -
1788221620 17.78° C - 1023.6 hPa 0 mm - - -
1788221320 18.89° C - 1026.3 hPa 0 mm - - -
1788220114 17.22° C - 1022.5 hPa 0 mm - - -
1788219814 18.33° C - 1024.7 hPa 0 mm - - -
1788219513 18.89° C - 1025.1 hPa 0 mm - - -
1788219213 18.33° C - 1023.6 hPa 0 mm - - -
1788218912 17.78° C - 1024 hPa 0 mm - - -
1788218612 17.78° C - 1022.8 hPa 0 mm - - -
1788218311 18.33° C - 1027.1 hPa 0 mm - - -
1788218011 18.33° C - 1022.1 hPa 0 mm - - -
1788217710 18.89° C - 1023.4 hPa 0 mm - - -

* Rain since midnight (hover to see other rain measurements)
** Current wind speed in m/s (hover to see current wind gust speed)